Location: Clair
(33.8067°N, 117.9845°W)
Time: 18:29:56
(UTC+00:00)

SL-23 DEB - Pass Details

Date: 14 February 2026
Orbit: 423 x 3434 km, 51.4° (Epoch: 8 March)

Event Time Altitude Azimuth Distance (km) Brightness Sun altitude
Exits shadow 13:09:43 31° 205° (SSW) 797 4.4 -18.8°
Drops below altitude 10° 13:12:28 10° 160° (SSE) 1,725 6.6 -18.2°
Sets 13:15:07 0° 151° (SSE) 2,858 7.9 -17.6°
